Weather in Mikhali

Russia / Kaluga Oblast     55°11′42″N   35°27′01″E
temp.,
°C
wind,
m/s
gust,
m/s
humid.,
%
clouds,
%
prec.,
mm/h
press.,
hPa
HPBL,
m
22 january, sat
sat2200:00−10ese2698100 0.1 997126
03:00−8ene2697100 0.4 998180
06:00−9ene259788 0.3 999113
09:00−9e1198100 0.6 100232
12:00−6sse239499 0.1 1004260
15:00−6sse239398 0.4 1006394
18:00−14se1110089 0.1 10109
21:00−15e11100100 0.1 101316
23 january, sun
sun2300:00−17ene22100100 0.0 101613
03:00−13ene259885 0.1 101875
06:00−14ne249996 0.0 102157
09:00−16ne24100100 0.1 102446
12:00−9ne239696 0.0 1027135
15:00−8ne239575 0.1 1029201
18:00−15nne2210081 0.0 103227
21:00−16nne22100100 0.0 103536
24 january, mon
mon2400:00−18nne22100100 0.0 103633
03:00−20nne22100100 0.0 103822
06:00−19ne22100100 0.0 103832
09:00−20ne22100100 0.0 103925
12:00−11ene249591 0.0 1038144
15:00−9ne239457 0.0 1037168
18:00−16ne2210078 0.0 103725
21:00−18ene11100100 0.0 103614
25 january, tue
tue2500:00−19ene11100100 0.0 10349
03:00−19e11100100 0.1 10329
06:00−20se21100100 0.0 103012
09:00−20wsw00100100 0.1 10289
12:00−11ssw129474 0.0 1025122
15:00−9s239245 0.0 1022176
18:00−16sse2210083 0.0 102134
21:00−18s24100100 0.0 102046
26 january, wed
wed2600:00−16ssw24100100 0.0 101980
03:00−13s1397100 0.0 1017100
06:00−11sse1296100 0.2 101695
09:00−11sse1296100 0.9 1016102
12:00−9se1192100 0.3 1016261
15:00−8ese1192100 0.6 1016286
18:00−11se119881 0.2 101610
21:00−13ssw119884 0.3 101610